Weather Roundup
Issued by NWS Chicago, IL

Home | Current Version | Previous Version | Graphics & Text | Print | Product List | Glossary On
Versions: 1 2 3 4 5 6 7 8 9 10 11 12 13 14 15 16 17 18 19 20 21 22 23 24 25 26 27 28 29 30 31 32 33 34 35 36 37 38 39 40 41 42 43 44 45 46 47 48 49 50
000
NZUS59 KLOT 301410
HRRLOT

CHICAGO AREA WEATHER ROUNDUP
NATIONAL WEATHER SERVICE CHICAGO/ROMEOVILLE IL
900 AM CDT TUE SEP 30 2014

NOTE: "FAIR" INDICATES FEW OR NO CLOUDS BELOW 12,000 FEET WITH NO
SIGNIFICANT WEATHER AND/OR OBSTRUCTIONS TO VISIBILITY.

* THESE STATIONS ARE NOT UNDER NWS QUALITY CONTROL. THEY ALSO MAY NOT
  REPORT WEATHER SUCH AS PRECIPITATION OR FOG.

ILZ005-006-012>014-019>023-301500-
NORTHEAST ILLINOIS

CITY           SKY/WX    TMP DP  RH WIND       PRES   REMARKS
OHARE          DRIZZLE   48  45  89 N12       30.06S FOG
MIDWAY         CLOUDY    51  49  92 NW12      30.05R
AURORA         CLOUDY    50  43  77 NE13      30.07R
LANSING*       CLOUDY    54  49  83 NE9       30.04S
JOLIET*        CLOUDY    51  47  87 NE13      30.05R
WAUKEGAN       CLOUDY    47  43  86 VRB6      30.07R
DUPAGE AIRPORT CLOUDY    49  44  83 NE12      30.06S
WHEELING       CLOUDY    49  45  86 N10       30.06R
KANKAKEE*      CLOUDY    55  49  78 N7        30.04S
MORRIS*        CLOUDY    52  48  86 NE6       30.05R
LEWIS AIRPORT* CLOUDY    51  47  86 NE12      30.05S
NORTHERLY IS     N/A     54  49  83 N9          N/A
$$

WIZ051-052-058>065-066-070>072-301500-
SOUTHEAST WISCONSIN

CITY           SKY/WX    TMP DP  RH WIND       PRES   REMARKS
MILWAUKEE      CLOUDY    47  41  80 N9        30.08S
KENOSHA*       CLOUDY    47  42  83 N9        30.08R
RACINE*        CLOUDY    47  43  86 NW9       30.08S
BURLINGTON     CLOUDY    44  38  81 NE8       30.09S
WAUKESHA       CLOUDY    43  39  87 N7        30.10S
WEST BEND      CLOUDY    43  37  81 N6        30.08S
$$

INZ001>003-010>013-019-020-301500-
NORTHWEST INDIANA

CITY           SKY/WX    TMP DP  RH WIND       PRES   REMARKS
GARY*          PTSUNNY   54  50  87 N12G23    30.05R
MICHIGAN CITY* NOT AVBL
RENSSELAER*    NOT AVBL
VALPARAISO     CLOUDY    54  48  80 N9        30.03R
$$

LMZ740>746-301500-
SOUTHERN LAKE MICHIGAN

STATION/POSITION TIME  SKY/WX   TEMP WIND        PRES    VSBY
                                AIR  DIR/SP/G
                 (UTC)          (F)  (DEG/KT/KT) (MB)    (MI)
HARRISON CRIB    1400            52  360/ 17/ 21   N/A
BURNHAM HARBOR   1400            52  330/  9/ 16   N/A
CALUMET HARBOR   1400            54  360/ 12/ 15 1016.2S
BURNS HARBOR     NOT AVBL
MICHIGAN CITY    1400            53  350/ 16/ 22   N/A
$$

ABBREVIATIONS USED IN REMARKS
   TC - TEMPERATURE IN CELSIUS
  WCI - WIND CHILL INDEX
   HX - HEAT INDEX
  VSB - VISIBILITY
$$



USA.gov is the U.S. government's official web portal to all federal, state and local government web resources and services.